This demonstration page uses our WeatherBlox Daily Observations layout. Learn more.

Left ArrowRight Arrow

40.92945, -100.16068

Hourly Observations for July 7, 2019

Temp ( °F °C ) Dew Point ( °F °C ) Humidity (%) Winds ( mph kmh ) Pressure ( in mb ) Visibility ( mi km ) Precip ( " mm )
12:15 am 00:15 Clear 68 20.1 65 18.2 89 89 SE 7 11 30.06 1018 10 16 N/A
12:35 am 00:35 Clear 67 19.7 65 18.3 92 92 SE 5 7 30.05 1018 10 16 N/A
12:50 am 00:50 Clear 67 19.3 65 18.2 93 93 SE 3 6 30.07 1018 10 16 N/A
1:15 am 01:15 Clear 66 19 65 18.1 95 95 N N/A 30.07 1018 10 16 N/A
1:35 am 01:35 Clear 64 17.8 64 17.5 98 98 N N/A 30.07 1018 10 16 N/A
1:55 am 01:55 Clear 64 17.6 63 17.4 99 99 ESE 6 9 30.07 1018 10 16 N/A
2:15 am 02:15 Clear 65 18.6 65 18.1 97 97 ESE 3 6 30.05 1018 10 16 N/A
2:35 am 02:35 Clear 65 18.6 65 18.1 97 97 SSE 5 7 30.05 1018 10 16 N/A
2:55 am 02:55 Clear 65 18.1 64 18 99 99 SE 6 9 30.06 1018 7 11 N/A
3:15 am 03:15 Clear 64 18 64 17.9 99 99 SE 3 6 30.06 1018 7 11 N/A
3:35 am 03:35 Clear 64 18 64 17.7 98 98 N N/A 30.07 1018 7 11 N/A
3:55 am 03:55 Mostly Cloudy 65 18.1 65 18.1 100 100 W 20 31 30.13 1020 7 11 N/A
4:15 am 04:15 Cloudy 67 19.7 66 18.8 95 95 W 16 26 30.11 1020 10 16 N/A
4:35 am 04:35 Cloudy 66 18.8 62 16.7 88 88 W 15 24 30.12 1020 10 16 N/A
4:55 am 04:55 Cloudy 65 18.2 62 16.6 90 90 WNW 10 17 30.13 1020 10 16 N/A
5:15 am 05:15 Mostly Cloudy 64 17.7 62 16.5 93 93 NW 7 11 30.11 1020 10 16 N/A
5:35 am 05:35 Mostly Cloudy with Light Rain 63 17.3 62 16.5 95 95 E 8 13 30.06 1018 10 16 N/A
5:55 am 05:55 Partly Cloudy 63 17.2 61 16.2 94 94 N N/A 30.06 1018 10 16 N/A
6:15 am 06:15 Sunny 62 16.8 61 16.1 96 96 SSW 3 6 30.09 1019 10 16 N/A
6:35 am 06:35 Sunny 61 16.3 61 15.9 98 98 N N/A 30.09 1019 10 16 N/A
6:55 am 06:55 Sunny 61 16 60 15.6 97 97 N N/A 30.09 1019 10 16 N/A
7:15 am 07:15 Sunny 62 16.8 61 16.2 96 96 SSE 5 7 30.09 1019 10 16 N/A
7:35 am 07:35 Sunny 65 18.1 62 16.7 92 92 SE 3 6 30.08 1019 10 16 N/A
7:55 am 07:55 Sunny 66 19.1 62 16.6 86 86 SE 3 6 30.07 1018 10 16 N/A
8:15 am 08:15 Sunny 67 19.6 62 16.5 82 82 N N/A 30.07 1018 10 16 N/A
8:35 am 08:35 Sunny 68 20.2 62 16.8 81 81 E 3 6 30.06 1018 10 16 N/A
8:55 am 08:55 Sunny 69 20.5 63 17.3 82 82 ENE 3 6 30.07 1018 10 16 N/A
9:15 am 09:15 Sunny 70 20.9 64 17.8 83 83 E 5 7 30.05 1018 10 16 N/A
9:35 am 09:35 Sunny 71 21.6 64 17.8 79 79 E 5 7 30.05 1018 10 16 N/A
9:55 am 09:55 Sunny 72 22.1 65 18.2 79 79 ESE 3 6 30.04 1017 10 16 N/A
10:15 am 10:15 Sunny 73 22.5 64 17.7 74 74 SE 5 7 30.03 1017 10 16 N/A
10:35 am 10:35 Sunny 74 23.3 64 17.7 71 71 N N/A 30.03 1017 10 16 N/A
10:55 am 10:55 Sunny 75 23.9 65 18.2 71 71 SSE 7 11 30.02 1017 10 16 N/A
11:15 am 11:15 Sunny 76 24.4 64 18 68 68 S 6 9 30.00 1016 10 16 N/A
11:35 am 11:35 Sunny 77 24.8 64 17.8 65 65 S 8 13 29.99 1016 10 16 N/A
11:55 am 11:55 Sunny 78 25.8 63 17.4 60 60 SE 10 17 29.97 1015 10 16 N/A
12:15 pm 12:15 Sunny 78 25.8 64 17.5 60 60 SSE 14 22 29.97 1015 10 16 N/A
12:35 pm 12:35 Sunny 80 26.4 64 17.6 59 59 SSE 13 20 29.97 1015 10 16 N/A
12:55 pm 12:55 Sunny 80 26.9 64 17.9 58 58 S 15 24 29.95 1014 10 16 N/A
1:15 pm 13:15 Sunny 81 27 65 18.5 60 60 S 14 22 29.95 1014 10 16 N/A
1:35 pm 13:35 Sunny 80 26.9 64 18 58 58 SSE 10 17 29.94 1014 10 16 N/A
1:55 pm 13:55 Sunny 81 27.4 65 18.4 58 58 SSE 14 22 29.93 1014 10 16 N/A
2:15 pm 14:15 Partly Cloudy 81 27.4 65 18.3 58 58 SSE 14 22 29.92 1013 10 16 N/A
2:35 pm 14:35 Partly Cloudy 82 27.6 65 18.3 57 57 S 12 19 29.92 1013 10 16 N/A
2:55 pm 14:55 Mostly Cloudy 81 27.1 66 19 61 61 SSE 13 20 29.92 1013 10 16 N/A
3:15 pm 15:15 Partly Cloudy 81 27.3 66 18.9 60 60 SSE 13 20 29.91 1013 10 16 N/A
3:35 pm 15:35 Sunny 81 27.4 66 18.9 60 60 SSE 15 24 29.90 1013 10 16 N/A
3:55 pm 15:55 Sunny 82 27.5 67 19.2 61 61 SSE 15 24 29.90 1012 10 16 N/A
4:15 pm 16:15 Sunny 82 27.8 66 18.9 58 58 SSE 15 24 29.89 1012 10 16 N/A
4:35 pm 16:35 Sunny 82 27.7 66 19.1 60 60 S 15 24 29.89 1012 10 16 N/A
4:55 pm 16:55 Sunny 82 27.6 66 18.8 59 59 SSE 10 17 29.89 1012 10 16 N/A
5:15 pm 17:15 Sunny 81 27.4 66 19.1 61 61 SE 15 24 29.89 1012 10 16 N/A
5:35 pm 17:35 Sunny 82 27.5 66 19 60 60 SSE 16 26 29.88 1012 10 16 N/A
5:55 pm 17:55 Sunny 81 27.4 66 19 60 60 SSE 14 22 29.87 1012 10 16 N/A
6:15 pm 18:15 Sunny 81 27.3 65 18.4 58 58 SSE 13 20 29.86 1011 10 16 N/A
6:35 pm 18:35 Sunny 81 27.1 66 19 61 61 SSE 14 22 29.86 1011 10 16 N/A
6:55 pm 18:55 Sunny 81 27 64 18 58 58 SSE 14 22 29.85 1011 10 16 N/A
7:15 pm 19:15 Sunny 80 26.6 65 18.5 61 61 SE 12 19 29.86 1011 10 16 N/A
7:35 pm 19:35 Sunny 80 26.6 66 18.7 62 62 SE 10 17 29.86 1011 10 16 N/A
7:55 pm 19:55 Sunny 79 26.1 67 19.3 66 66 SE 12 19 29.86 1011 10 16 N/A
8:15 pm 20:15 Sunny 79 26 67 19.5 67 67 SE 9 15 29.86 1011 10 16 N/A
8:35 pm 20:35 Sunny 78 25.5 67 19.2 68 68 SE 10 17 29.87 1011 10 16 N/A
8:55 pm 20:55 Sunny 77 24.8 67 19.3 72 72 SE 8 13 29.87 1012 10 16 N/A
9:15 pm 21:15 Clear 75 24.1 67 19.6 76 76 SE 8 13 29.88 1012 10 16 N/A
9:35 pm 21:35 Clear 74 23.5 68 19.9 80 80 SE 9 15 29.88 1012 10 16 N/A
9:55 pm 21:55 Clear 74 23.2 68 20 82 82 SE 9 15 29.89 1012 10 16 N/A
10:15 pm 22:15 Clear 73 23 68 20.1 84 84 SE 9 15 29.90 1012 10 16 N/A
10:35 pm 22:35 Clear 73 22.7 68 20.1 85 85 SE 12 19 29.91 1013 10 16 N/A
10:55 pm 22:55 Clear 73 22.5 68 20 86 86 SE 9 15 29.91 1013 10 16 N/A
11:15 pm 23:15 Clear 72 22.1 67 19.7 86 86 SE 8 13 29.92 1013 10 16 N/A
11:35 pm 23:35 Clear 72 22 67 19.5 86 86 SE 8 13 29.92 1013 10 16 N/A
11:55 pm 23:55 Clear 71 21.9 67 19.5 86 86 SE 8 13 29.92 1013 10 16 N/A

Powered by AerisWeather